ONEWEB-0302 (49091 NORAD) Tracking and Keplerian Element Data

This shows tracking and keplerian element data for the satellite.

Feedback or suggestion? Click here.




ElementValue
Catalog49091
NameONEWEB-0302
Epoch Orbit1141
Epoch Day300.91667824
Epoch Year2021
RAAN342.5817
Inclination87.1961
Eccentricity0.0023157
Argument of Perigee59.0729
Mean Anonmoly195.3995
Mean Motion14.84508746
Decay Rate0.00031793
L11 49091U 21075S 21300.91667824 .00031793 00000-0 37402-2 0 9998
L22 49091 87.1961 342.5817 0023157 59.0729 195.3995 14.84508746 11412

Live tracking and technical data element details for ONEWEB-0302 (NORAD 49091). ONEWEB-0302 can be tracked NOW for your location showing map with azimuth and elevation plus other details from your city location.

Track the satellite on the map from your city or location and see movement details for azimuth, elevation, latitude, longitude, range, height, and movement on the map or in text.







IsCatalogInMostPopularTable: catalog: 49091, numindb: 14
Update: records affected: 1



GetName: 49091 ONEWEB-0302

Hit Count: updated at: Thu, 28 Oct 2021 11:09:01 GMT